Skip Page Navigation
NASA JPL Caltech
NASA Logo - Jet Propulsion Laboratory + View the NASA Portal
+ Near-Earth Object (NEO) Program
Search JPL
JPL Home Earth Solar System Stars & Galaxies Technology
JPL Solar System Dynamics
BODIES ORBITS EPHEMERIDES TOOLS PHYSICAL DATA DISCOVERY FAQ SITE MAP
JPL Small-Body Database Browser
Search: [ help ]  
6491 (1991 OA)
Classification: Amor [NEO, PHA]          SPK-ID: 2006491
Ephemeris | Orbit Diagram | Orbital Elements | Physical Parameters | Discovery Circumstances | Close-Approach Data ]

[ hide orbit diagram ]
Orbit Diagram
Note: Make sure you have Java enabled on your browser to see the applet. This applet is provided as a 3D orbit visualization tool. The applet was implemented using 2-body methods, and hence should not be used for determining accurate long-term trajectories (over several years or decades) or planetary encounter circumstances. For accurate long-term ephemerides, please instead use our Horizons system.
Orbit Viewer

Additional Notes: the orbits shown in the applet are color coded. The planets are white lines, and the asteroid/comet is a blue line. The bright white line indicates the portion of the orbit that is above the ecliptic plane, and the darker portion is below the ecliptic plane. Likewise for the asteroid/comet orbit, the light blue indicates the portion above the ecliptic plane, and the dark blue the portion below the ecliptic plane.

Orbit Viewer applet originally written and kindly provided by Osamu Ajiki (AstroArts), and further modified by Ron Baalke (JPL).


Orbital Elements at Epoch 2456400.5 (2013-Apr-18.0) TDB
Reference: JPL 20 (heliocentric ecliptic J2000)
 Element Value Uncertainty (1-sigma)   Units 
e .5908845258897309 5.932e-08  
a 2.507755785577805 4.2122e-08 AU
q 1.025961697169434 1.4793e-07 AU
i 5.853279711160496 1.4328e-05 deg
node 302.434901997215 8.1935e-05 deg
peri 322.6427387571863 8.595e-05 deg
M 177.8004473632413 1.2949e-05 deg
tp 2455684.098251715916
(2011-May-02.59825172)
4.8938e-05 JED
period 1450.528574066961
3.97
3.6546e-05
1.001e-07
d
yr
n .2481853900958598 6.253e-09 deg/d
Q 3.989549873986176 6.7011e-08 AU
  Orbit Determination Parameters
   # obs. used (total)      175  
   data-arc span      7500 days (20.53 yr)  
   first obs. used      1991-03-18  
   last obs. used      2011-09-29  
   planetary ephem.      DE405  
   SB-pert. ephem.      SB405-CPV-2  
   condition code      0  
   fit RMS      .49054  
   data source      ORB  
   producer      Otto Matic  
   solution date      2013-Apr-29 15:37:46  

Additional Information
 Earth MOID = .0451111 AU 
 T_jup = 3.189 
[ show covariance matrix ]

Ephemeris | Orbit Diagram | Orbital Elements | Physical Parameters | Discovery Circumstances | Close-Approach Data ]

Physical Parameter Table
Parameter Symbol Value Units Sigma Reference Notes
absolute magnitude H 18.5 mag n/a PDS3 (MPC 28115)  
rotation period rot_per 2.69 h n/a Asteroid Lightcurve DataBase (Rev. 2013-May-01) Result based on less than full coverage, so that the period may be wrong by 30 percent or so.
Published Reference List:
[Erikson, A.; Mottola, S.; Lagerros, J.S.V.; Lindgren, M.; et al. (2000) Icarus 147, 487-497.]

6491 (1991 OA)          Discovered 1991-Jul-16 by Holt, H. E. at Palomar (675)
Reference: DISCOVERY.DBLast Updated: 2003-08-29

[ show close-approach data ]
Ephemeris | Orbit Diagram | Orbital Elements | Physical Parameters | Discovery Circumstances | Close-Approach Data ]
ABOUT SSD CREDITS/AWARDS PRIVACY/COPYRIGHT GLOSSARY LINKS
FirstGov 2013-Jun-19 02:40 UT
(server date/time)  
NASA Home Page
Site Manager:   Donald K. Yeomans
Webmaster  Alan B. Chamberlin